Year,Month,Day,Hour,Minute,Value (Times are PST for insolation in W/m^2)
2008,05,30,00,00,0.00
2008,05,30,00,01,0.00
2008,05,30,00,02,0.00
2008,05,30,00,03,0.00
2008,05,30,00,04,0.00
2008,05,30,00,05,0.00
2008,05,30,00,06,0.00
2008,05,30,00,07,0.00
2008,05,30,00,08,0.00
2008,05,30,00,09,0.00
2008,05,30,00,10,0.00
2008,05,30,00,11,0.00
2008,05,30,00,12,0.00
2008,05,30,00,13,0.00
2008,05,30,00,14,0.00
2008,05,30,00,15,0.00
2008,05,30,00,16,0.00
2008,05,30,00,17,0.00
2008,05,30,00,18,0.00
2008,05,30,00,19,0.00
2008,05,30,00,20,0.00
2008,05,30,00,21,0.00
2008,05,30,00,22,0.00
2008,05,30,00,23,0.00
2008,05,30,00,24,0.00
2008,05,30,00,25,0.00
2008,05,30,00,26,0.00
2008,05,30,00,27,0.00
2008,05,30,00,28,0.00
2008,05,30,00,29,0.00
2008,05,30,00,30,0.00
2008,05,30,00,31,0.00
2008,05,30,00,32,0.00
2008,05,30,00,33,0.00
2008,05,30,00,34,0.00
2008,05,30,00,35,0.00
2008,05,30,00,36,0.00
2008,05,30,00,37,0.00
2008,05,30,00,38,0.00
2008,05,30,00,39,0.00
2008,05,30,00,40,0.00
2008,05,30,00,41,0.00
2008,05,30,00,42,0.00
2008,05,30,00,43,0.00
2008,05,30,00,44,0.00
2008,05,30,00,45,0.00
2008,05,30,00,46,0.00
2008,05,30,00,47,0.00
2008,05,30,00,48,0.00
2008,05,30,00,49,0.00
2008,05,30,00,50,0.00
2008,05,30,00,51,0.00
2008,05,30,00,52,0.00
2008,05,30,00,53,0.00
2008,05,30,00,54,0.00
2008,05,30,00,55,0.00
2008,05,30,00,56,0.00
2008,05,30,00,57,0.00
2008,05,30,00,58,0.00
2008,05,30,00,59,0.00
2008,05,30,01,00,0.00
2008,05,30,01,01,0.00
2008,05,30,01,02,0.00
2008,05,30,01,03,0.00
2008,05,30,01,04,0.00
2008,05,30,01,05,0.00
2008,05,30,01,06,0.00
2008,05,30,01,07,0.00
2008,05,30,01,08,0.00
2008,05,30,01,09,0.00
2008,05,30,01,10,0.00
2008,05,30,01,11,0.00
2008,05,30,01,12,0.00
2008,05,30,01,13,0.00
2008,05,30,01,14,0.00
2008,05,30,01,15,0.00
2008,05,30,01,16,0.00
2008,05,30,01,17,0.00
2008,05,30,01,18,0.00
2008,05,30,01,19,0.00
2008,05,30,01,20,0.00
2008,05,30,01,21,0.00
2008,05,30,01,22,0.00
2008,05,30,01,23,0.00
2008,05,30,01,24,0.00
2008,05,30,01,25,0.00
2008,05,30,01,26,0.00
2008,05,30,01,27,0.00
2008,05,30,01,28,0.00
2008,05,30,01,29,0.00
2008,05,30,01,30,0.00
2008,05,30,01,31,0.00
2008,05,30,01,32,0.00
2008,05,30,01,33,0.00
2008,05,30,01,34,0.00
2008,05,30,01,35,0.00
2008,05,30,01,36,0.00
2008,05,30,01,37,0.00
2008,05,30,01,38,0.00
2008,05,30,01,39,0.00
2008,05,30,01,40,0.00
2008,05,30,01,41,0.00
2008,05,30,01,42,0.00
2008,05,30,01,43,0.00
2008,05,30,01,44,0.00
2008,05,30,01,45,0.00
2008,05,30,01,46,0.00
2008,05,30,01,47,0.00
2008,05,30,01,48,0.00
2008,05,30,01,49,0.00
2008,05,30,01,50,0.00
2008,05,30,01,51,0.00
2008,05,30,01,52,0.00
2008,05,30,01,53,0.00
2008,05,30,01,54,0.00
2008,05,30,01,55,0.00
2008,05,30,01,56,0.00
2008,05,30,01,57,0.00
2008,05,30,01,58,0.00
2008,05,30,01,59,0.00
2008,05,30,02,00,0.00
2008,05,30,02,01,0.00
2008,05,30,02,02,0.00
2008,05,30,02,03,0.00
2008,05,30,02,04,0.00
2008,05,30,02,05,0.00
2008,05,30,02,06,0.00
2008,05,30,02,07,0.00
2008,05,30,02,08,0.00
2008,05,30,02,09,0.00
2008,05,30,02,10,0.00
2008,05,30,02,11,0.00
2008,05,30,02,12,0.00
2008,05,30,02,13,0.00
2008,05,30,02,14,0.00
2008,05,30,02,15,0.00
2008,05,30,02,16,0.00
2008,05,30,02,17,0.00
2008,05,30,02,18,0.00
2008,05,30,02,19,0.00
2008,05,30,02,20,0.00
2008,05,30,02,21,0.00
2008,05,30,02,22,0.00
2008,05,30,02,23,0.00
2008,05,30,02,24,0.00
2008,05,30,02,25,0.00
2008,05,30,02,26,0.00
2008,05,30,02,27,0.00
2008,05,30,02,28,0.00
2008,05,30,02,29,0.00
2008,05,30,02,30,0.00
2008,05,30,02,31,0.00
2008,05,30,02,32,0.00
2008,05,30,02,33,0.00
2008,05,30,02,34,0.00
2008,05,30,02,35,0.00
2008,05,30,02,36,0.00
2008,05,30,02,37,0.00
2008,05,30,02,38,0.00
2008,05,30,02,39,0.00
2008,05,30,02,40,0.00
2008,05,30,02,41,0.00
2008,05,30,02,42,0.00
2008,05,30,02,43,0.00
2008,05,30,02,44,0.00
2008,05,30,02,45,0.00
2008,05,30,02,46,0.00
2008,05,30,02,47,0.00
2008,05,30,02,48,0.00
2008,05,30,02,49,0.00
2008,05,30,02,50,0.00
2008,05,30,02,51,0.00
2008,05,30,02,52,0.00
2008,05,30,02,53,0.00
2008,05,30,02,54,0.00
2008,05,30,02,55,0.00
2008,05,30,02,56,0.00
2008,05,30,02,57,0.00
2008,05,30,02,58,0.00
2008,05,30,02,59,0.00
2008,05,30,03,00,0.00
2008,05,30,03,01,0.00
2008,05,30,03,02,0.00
2008,05,30,03,03,0.00
2008,05,30,03,04,0.00
2008,05,30,03,05,0.00
2008,05,30,03,06,0.00
2008,05,30,03,07,0.00
2008,05,30,03,08,0.00
2008,05,30,03,09,0.00
2008,05,30,03,10,0.00
2008,05,30,03,11,0.00
2008,05,30,03,12,0.00
2008,05,30,03,13,0.00
2008,05,30,03,14,0.00
2008,05,30,03,15,0.00
2008,05,30,03,16,0.00
2008,05,30,03,17,0.00
2008,05,30,03,18,0.00
2008,05,30,03,19,0.00
2008,05,30,03,20,0.00
2008,05,30,03,21,0.00
2008,05,30,03,22,0.00
2008,05,30,03,23,0.00
2008,05,30,03,24,0.00
2008,05,30,03,25,0.00
2008,05,30,03,26,0.00
2008,05,30,03,27,0.00
2008,05,30,03,28,0.00
2008,05,30,03,29,0.00
2008,05,30,03,30,0.00
2008,05,30,03,31,0.00
2008,05,30,03,32,0.00
2008,05,30,03,33,0.00
2008,05,30,03,34,0.00
2008,05,30,03,35,0.00
2008,05,30,03,36,0.00
2008,05,30,03,37,0.00
2008,05,30,03,38,0.00
2008,05,30,03,39,0.00
2008,05,30,03,40,0.00
2008,05,30,03,41,0.00
2008,05,30,03,42,0.00
2008,05,30,03,43,0.00
2008,05,30,03,44,0.00
2008,05,30,03,45,0.00
2008,05,30,03,46,0.00
2008,05,30,03,47,0.00
2008,05,30,03,48,0.00
2008,05,30,03,49,0.00
2008,05,30,03,50,0.00
2008,05,30,03,51,0.00
2008,05,30,03,52,0.00
2008,05,30,03,53,0.00
2008,05,30,03,54,0.00
2008,05,30,03,55,0.00
2008,05,30,03,56,0.00
2008,05,30,03,57,0.00
2008,05,30,03,58,0.00
2008,05,30,03,59,0.00
2008,05,30,04,00,0.00
2008,05,30,04,01,0.00
2008,05,30,04,02,0.00
2008,05,30,04,03,0.00
2008,05,30,04,04,0.00
2008,05,30,04,05,0.00
2008,05,30,04,06,0.00
2008,05,30,04,07,0.00
2008,05,30,04,08,0.00
2008,05,30,04,09,0.00
2008,05,30,04,10,0.00
2008,05,30,04,11,0.00
2008,05,30,04,12,0.00
2008,05,30,04,13,0.00
2008,05,30,04,14,0.00
2008,05,30,04,15,0.00
2008,05,30,04,16,0.00
2008,05,30,04,17,0.00
2008,05,30,04,18,0.00
2008,05,30,04,19,0.00
2008,05,30,04,20,0.00
2008,05,30,04,21,0.00
2008,05,30,04,22,0.00
2008,05,30,04,23,0.00
2008,05,30,04,24,0.00
2008,05,30,04,25,0.00
2008,05,30,04,26,0.00
2008,05,30,04,27,0.00
2008,05,30,04,28,0.00
2008,05,30,04,29,0.00
2008,05,30,04,30,0.00
2008,05,30,04,31,0.00
2008,05,30,04,32,0.00
2008,05,30,04,33,0.00
2008,05,30,04,34,0.00
2008,05,30,04,35,0.00
2008,05,30,04,36,0.00
2008,05,30,04,37,0.00
2008,05,30,04,38,0.00
2008,05,30,04,39,0.00
2008,05,30,04,40,0.00
2008,05,30,04,41,0.00
2008,05,30,04,42,0.00
2008,05,30,04,43,0.00
2008,05,30,04,44,0.00
2008,05,30,04,45,0.00
2008,05,30,04,46,0.00
2008,05,30,04,47,0.00
2008,05,30,04,48,0.00
2008,05,30,04,49,0.00
2008,05,30,04,50,0.00
2008,05,30,04,51,0.00
2008,05,30,04,52,0.00
2008,05,30,04,53,0.00
2008,05,30,04,54,0.00
2008,05,30,04,55,0.00
2008,05,30,04,56,0.00
2008,05,30,04,57,0.00
2008,05,30,04,58,0.00
2008,05,30,04,59,0.00
2008,05,30,05,00,0.00
2008,05,30,05,01,0.00
2008,05,30,05,02,0.00
2008,05,30,05,03,0.00
2008,05,30,05,04,0.00
2008,05,30,05,05,0.00
2008,05,30,05,06,0.00
2008,05,30,05,07,0.00
2008,05,30,05,08,0.00
2008,05,30,05,09,0.00
2008,05,30,05,10,0.00
2008,05,30,05,11,0.00
2008,05,30,05,12,0.00
2008,05,30,05,13,0.00
2008,05,30,05,14,0.00
2008,05,30,05,15,0.00
2008,05,30,05,16,0.00
2008,05,30,05,17,0.00
2008,05,30,05,18,0.00
2008,05,30,05,19,0.00
2008,05,30,05,20,0.00
2008,05,30,05,21,2.10
2008,05,30,05,22,5.00
2008,05,30,05,23,5.00
2008,05,30,05,24,5.00
2008,05,30,05,25,5.00
2008,05,30,05,26,5.60
2008,05,30,05,27,7.00
2008,05,30,05,28,7.00
2008,05,30,05,29,7.00
2008,05,30,05,30,8.80
2008,05,30,05,31,9.00
2008,05,30,05,32,9.70
2008,05,30,05,33,11.00
2008,05,30,05,34,11.00
2008,05,30,05,35,11.00
2008,05,30,05,36,11.90
2008,05,30,05,37,12.00
2008,05,30,05,38,12.70
2008,05,30,05,39,14.00
2008,05,30,05,40,15.30
2008,05,30,05,41,16.00
2008,05,30,05,42,17.90
2008,05,30,05,43,18.20
2008,05,30,05,44,19.00
2008,05,30,05,45,20.10
2008,05,30,05,46,21.00
2008,05,30,05,47,22.70
2008,05,30,05,48,23.10
2008,05,30,05,49,25.00
2008,05,30,05,50,25.00
2008,05,30,05,51,25.50
2008,05,30,05,52,26.00
2008,05,30,05,53,27.80
2008,05,30,05,54,30.20
2008,05,30,05,55,32.30
2008,05,30,05,56,33.80
2008,05,30,05,57,37.30
2008,05,30,05,58,39.70
2008,05,30,05,59,41.80
2008,05,30,06,00,40.20
2008,05,30,06,01,42.60
2008,05,30,06,02,44.80
2008,05,30,06,03,46.60
2008,05,30,06,04,48.50
2008,05,30,06,05,50.80
2008,05,30,06,06,53.00
2008,05,30,06,07,53.30
2008,05,30,06,08,55.80
2008,05,30,06,09,60.40
2008,05,30,06,10,62.00
2008,05,30,06,11,62.90
2008,05,30,06,12,63.00
2008,05,30,06,13,63.60
2008,05,30,06,14,65.00
2008,05,30,06,15,71.90
2008,05,30,06,16,91.00
2008,05,30,06,17,104.50
2008,05,30,06,18,105.00
2008,05,30,06,19,105.00
2008,05,30,06,20,105.00
2008,05,30,06,21,106.30
2008,05,30,06,22,107.00
2008,05,30,06,23,109.00
2008,05,30,06,24,111.40
2008,05,30,06,25,114.10
2008,05,30,06,26,117.10
2008,05,30,06,27,120.10
2008,05,30,06,28,122.70
2008,05,30,06,29,127.20
2008,05,30,06,30,130.50
2008,05,30,06,31,133.20
2008,05,30,06,32,136.00
2008,05,30,06,33,138.40
2008,05,30,06,34,140.70
2008,05,30,06,35,141.10
2008,05,30,06,36,142.00
2008,05,30,06,37,142.80
2008,05,30,06,38,144.00
2008,05,30,06,39,145.50
2008,05,30,06,40,146.00
2008,05,30,06,41,148.20
2008,05,30,06,42,150.30
2008,05,30,06,43,153.80
2008,05,30,06,44,155.60
2008,05,30,06,45,156.00
2008,05,30,06,46,157.80
2008,05,30,06,47,160.50
2008,05,30,06,48,163.60
2008,05,30,06,49,165.90
2008,05,30,06,50,168.30
2008,05,30,06,51,171.40
2008,05,30,06,52,175.80
2008,05,30,06,53,179.40
2008,05,30,06,54,181.00
2008,05,30,06,55,183.40
2008,05,30,06,56,187.30
2008,05,30,06,57,189.60
2008,05,30,06,58,192.10
2008,05,30,06,59,195.80
2008,05,30,07,00,200.10
2008,05,30,07,01,203.10
2008,05,30,07,02,207.40
2008,05,30,07,03,212.40
2008,05,30,07,04,217.90
2008,05,30,07,05,220.30
2008,05,30,07,06,221.70
2008,05,30,07,07,226.20
2008,05,30,07,08,231.10
2008,05,30,07,09,235.40
2008,05,30,07,10,230.90
2008,05,30,07,11,186.70
2008,05,30,07,12,167.40
2008,05,30,07,13,129.80
2008,05,30,07,14,124.20
2008,05,30,07,15,115.20
2008,05,30,07,16,129.30
2008,05,30,07,17,125.40
2008,05,30,07,18,125.30
2008,05,30,07,19,121.20
2008,05,30,07,20,116.20
2008,05,30,07,21,120.20
2008,05,30,07,22,118.00
2008,05,30,07,23,124.30
2008,05,30,07,24,138.10
2008,05,30,07,25,138.20
2008,05,30,07,26,141.20
2008,05,30,07,27,145.60
2008,05,30,07,28,151.30
2008,05,30,07,29,153.90
2008,05,30,07,30,157.90
2008,05,30,07,31,161.90
2008,05,30,07,32,166.20
2008,05,30,07,33,172.10
2008,05,30,07,34,178.00
2008,05,30,07,35,181.80
2008,05,30,07,36,188.10
2008,05,30,07,37,187.30
2008,05,30,07,38,193.40
2008,05,30,07,39,205.60
2008,05,30,07,40,204.80
2008,05,30,07,41,216.00
2008,05,30,07,42,220.60
2008,05,30,07,43,213.70
2008,05,30,07,44,215.60
2008,05,30,07,45,224.10
2008,05,30,07,46,222.70
2008,05,30,07,47,228.30
2008,05,30,07,48,223.30
2008,05,30,07,49,222.10
2008,05,30,07,50,218.80
2008,05,30,07,51,218.50
2008,05,30,07,52,221.70
2008,05,30,07,53,218.00
2008,05,30,07,54,219.60
2008,05,30,07,55,222.40
2008,05,30,07,56,226.40
2008,05,30,07,57,230.40
2008,05,30,07,58,234.00
2008,05,30,07,59,244.40
2008,05,30,08,00,244.90
2008,05,30,08,01,235.40
2008,05,30,08,02,243.20
2008,05,30,08,03,254.30
2008,05,30,08,04,311.50
2008,05,30,08,05,246.30
2008,05,30,08,06,246.50
2008,05,30,08,07,248.40
2008,05,30,08,08,250.90
2008,05,30,08,09,257.20
2008,05,30,08,10,255.20
2008,05,30,08,11,260.90
2008,05,30,08,12,263.90
2008,05,30,08,13,273.70
2008,05,30,08,14,273.90
2008,05,30,08,15,271.50
2008,05,30,08,16,280.10
2008,05,30,08,17,278.50
2008,05,30,08,18,277.10
2008,05,30,08,19,276.00
2008,05,30,08,20,317.30
2008,05,30,08,21,278.60
2008,05,30,08,22,302.40
2008,05,30,08,23,313.20
2008,05,30,08,24,272.20
2008,05,30,08,25,258.20
2008,05,30,08,26,275.40
2008,05,30,08,27,265.10
2008,05,30,08,28,258.00
2008,05,30,08,29,258.00
2008,05,30,08,30,254.60
2008,05,30,08,31,253.00
2008,05,30,08,32,257.30
2008,05,30,08,33,299.50
2008,05,30,08,34,290.30
2008,05,30,08,35,256.40
2008,05,30,08,36,248.30
2008,05,30,08,37,241.00
2008,05,30,08,38,241.00
2008,05,30,08,39,241.00
2008,05,30,08,40,292.80
2008,05,30,08,41,337.40
2008,05,30,08,42,318.00
2008,05,30,08,43,346.00
2008,05,30,08,44,382.20
2008,05,30,08,45,320.00
2008,05,30,08,46,320.00
2008,05,30,08,47,320.00
2008,05,30,08,48,320.00
2008,05,30,08,49,320.00
2008,05,30,08,50,320.00
2008,05,30,08,51,328.30
2008,05,30,08,52,333.40
2008,05,30,08,53,315.00
2008,05,30,08,54,315.00
2008,05,30,08,55,351.60
2008,05,30,08,56,418.00
2008,05,30,08,57,509.60
2008,05,30,08,58,708.00
2008,05,30,08,59,705.00
2008,05,30,09,00,645.40
2008,05,30,09,01,629.00
2008,05,30,09,02,605.20
2008,05,30,09,03,510.00
2008,05,30,09,04,510.00
2008,05,30,09,05,602.40
2008,05,30,09,06,645.00
2008,05,30,09,07,366.50
2008,05,30,09,08,335.20
2008,05,30,09,09,329.20
2008,05,30,09,10,379.00
2008,05,30,09,11,371.60
2008,05,30,09,12,396.80
2008,05,30,09,13,423.90
2008,05,30,09,14,457.00
2008,05,30,09,15,457.00
2008,05,30,09,16,457.00
2008,05,30,09,17,457.00
2008,05,30,09,18,457.00
2008,05,30,09,19,446.00
2008,05,30,09,20,527.60
2008,05,30,09,21,756.00
2008,05,30,09,22,756.00
2008,05,30,09,23,728.70
2008,05,30,09,24,719.00
2008,05,30,09,25,680.60
2008,05,30,09,26,476.00
2008,05,30,09,27,476.00
2008,05,30,09,28,476.00
2008,05,30,09,29,425.90
2008,05,30,09,30,408.00
2008,05,30,09,31,408.00
2008,05,30,09,32,408.00
2008,05,30,09,33,545.40
2008,05,30,09,34,698.00
2008,05,30,09,35,588.90
2008,05,30,09,36,550.00
2008,05,30,09,37,553.80
2008,05,30,09,38,599.70
2008,05,30,09,39,620.80
2008,05,30,09,40,584.00
2008,05,30,09,41,468.70
2008,05,30,09,42,479.10
2008,05,30,09,43,494.10
2008,05,30,09,44,457.00
2008,05,30,09,45,490.20
2008,05,30,09,46,551.50
2008,05,30,09,47,488.60
2008,05,30,09,48,511.80
2008,05,30,09,49,467.60
2008,05,30,09,50,467.80
2008,05,30,09,51,475.70
2008,05,30,09,52,480.00
2008,05,30,09,53,573.50
2008,05,30,09,54,591.00
2008,05,30,09,55,581.50
2008,05,30,09,56,558.30
2008,05,30,09,57,551.40
2008,05,30,09,58,543.70
2008,05,30,09,59,586.30
2008,05,30,10,00,552.60
2008,05,30,10,01,536.50
2008,05,30,10,02,530.60
2008,05,30,10,03,541.00
2008,05,30,10,04,541.00
2008,05,30,10,05,541.00
2008,05,30,10,06,550.70
2008,05,30,10,07,628.00
2008,05,30,10,08,628.00
2008,05,30,10,09,628.00
2008,05,30,10,10,616.20
2008,05,30,10,11,612.00
2008,05,30,10,12,620.80
2008,05,30,10,13,668.00
2008,05,30,10,14,668.00
2008,05,30,10,15,668.00
2008,05,30,10,16,668.00
2008,05,30,10,17,617.90
2008,05,30,10,18,592.10
2008,05,30,10,19,566.20
2008,05,30,10,20,558.10
2008,05,30,10,21,572.30
2008,05,30,10,22,562.30
2008,05,30,10,23,566.20
2008,05,30,10,24,620.60
2008,05,30,10,25,584.60
2008,05,30,10,26,589.60
2008,05,30,10,27,657.80
2008,05,30,10,28,684.00
2008,05,30,10,29,574.60
2008,05,30,10,30,596.10
2008,05,30,10,31,568.10
2008,05,30,10,32,558.80
2008,05,30,10,33,544.70
2008,05,30,10,34,546.70
2008,05,30,10,35,555.00
2008,05,30,10,36,555.00
2008,05,30,10,37,555.00
2008,05,30,10,38,588.70
2008,05,30,10,39,563.00
2008,05,30,10,40,538.80
2008,05,30,10,41,558.80
2008,05,30,10,42,550.20
2008,05,30,10,43,534.80
2008,05,30,10,44,568.40
2008,05,30,10,45,554.80
2008,05,30,10,46,559.00
2008,05,30,10,47,559.10
2008,05,30,10,48,535.10
2008,05,30,10,49,564.20
2008,05,30,10,50,576.90
2008,05,30,10,51,546.10
2008,05,30,10,52,582.10
2008,05,30,10,53,593.20
2008,05,30,10,54,614.90
2008,05,30,10,55,636.50
2008,05,30,10,56,635.80
2008,05,30,10,57,617.80
2008,05,30,10,58,625.40
2008,05,30,10,59,562.50
2008,05,30,11,00,535.50
2008,05,30,11,01,535.60
2008,05,30,11,02,529.00
2008,05,30,11,03,537.20
2008,05,30,11,04,570.30
2008,05,30,11,05,562.80
2008,05,30,11,06,596.10
2008,05,30,11,07,599.30
2008,05,30,11,08,574.10
2008,05,30,11,09,584.20
2008,05,30,11,10,591.40
2008,05,30,11,11,607.00
2008,05,30,11,12,664.70
2008,05,30,11,13,656.10
2008,05,30,11,14,670.20
2008,05,30,11,15,730.30
2008,05,30,11,16,689.50
2008,05,30,11,17,615.40
2008,05,30,11,18,619.40
2008,05,30,11,19,578.90
2008,05,30,11,20,563.20
2008,05,30,11,21,578.70
2008,05,30,11,22,664.30
2008,05,30,11,23,659.70
2008,05,30,11,24,683.60
2008,05,30,11,25,641.90
2008,05,30,11,26,660.70
2008,05,30,11,27,709.90
2008,05,30,11,28,714.00
2008,05,30,11,29,704.30
2008,05,30,11,30,661.40
2008,05,30,11,31,630.00
2008,05,30,11,32,617.90
2008,05,30,11,33,615.00
2008,05,30,11,34,656.70
2008,05,30,11,35,614.40
2008,05,30,11,36,609.00
2008,05,30,11,37,652.80
2008,05,30,11,38,649.20
2008,05,30,11,39,600.20
2008,05,30,11,40,607.30
2008,05,30,11,41,643.00
2008,05,30,11,42,650.60
2008,05,30,11,43,659.00
2008,05,30,11,44,659.00
2008,05,30,11,45,634.60
2008,05,30,11,46,665.90
2008,05,30,11,47,715.80
2008,05,30,11,48,670.00
2008,05,30,11,49,670.00
2008,05,30,11,50,967.30
2008,05,30,11,51,1006.00
2008,05,30,11,52,935.80
2008,05,30,11,53,712.90
2008,05,30,11,54,671.40
2008,05,30,11,55,677.60
2008,05,30,11,56,688.70
2008,05,30,11,57,725.80
2008,05,30,11,58,669.00
2008,05,30,11,59,671.40
2008,05,30,12,00,681.70
2008,05,30,12,01,641.30
2008,05,30,12,02,636.60
2008,05,30,12,03,638.00
2008,05,30,12,04,638.00
2008,05,30,12,05,638.00
2008,05,30,12,06,734.70
2008,05,30,12,07,805.00
2008,05,30,12,08,686.90
2008,05,30,12,09,673.00
2008,05,30,12,10,673.00
2008,05,30,12,11,673.00
2008,05,30,12,12,673.00
2008,05,30,12,13,673.00
2008,05,30,12,14,663.80
2008,05,30,12,15,605.40
2008,05,30,12,16,686.80
2008,05,30,12,17,708.00
2008,05,30,12,18,708.00
2008,05,30,12,19,708.00
2008,05,30,12,20,708.00
2008,05,30,12,21,744.50
2008,05,30,12,22,939.00
2008,05,30,12,23,838.00
2008,05,30,12,24,712.40
2008,05,30,12,25,718.50
2008,05,30,12,26,724.00
2008,05,30,12,27,928.00
2008,05,30,12,28,862.60
2008,05,30,12,29,672.40
2008,05,30,12,30,631.00
2008,05,30,12,31,631.00
2008,05,30,12,32,715.30
2008,05,30,12,33,722.00
2008,05,30,12,34,685.20
2008,05,30,12,35,694.00
2008,05,30,12,36,743.30
2008,05,30,12,37,834.20
2008,05,30,12,38,829.40
2008,05,30,12,39,694.50
2008,05,30,12,40,735.00
2008,05,30,12,41,735.00
2008,05,30,12,42,1229.70
2008,05,30,12,43,1421.60
2008,05,30,12,44,1422.00
2008,05,30,12,45,1252.30
2008,05,30,12,46,777.00
2008,05,30,12,47,692.50
2008,05,30,12,48,633.80
2008,05,30,12,49,647.60
2008,05,30,12,50,612.20
2008,05,30,12,51,610.80
2008,05,30,12,52,645.20
2008,05,30,12,53,651.80
2008,05,30,12,54,599.90
2008,05,30,12,55,644.80
2008,05,30,12,56,662.50
2008,05,30,12,57,722.00
2008,05,30,12,58,664.20
2008,05,30,12,59,633.10
2008,05,30,13,00,615.10
2008,05,30,13,01,610.60
2008,05,30,13,02,822.50
2008,05,30,13,03,745.00
2008,05,30,13,04,745.00
2008,05,30,13,05,712.80
2008,05,30,13,06,693.00
2008,05,30,13,07,693.00
2008,05,30,13,08,693.00
2008,05,30,13,09,693.00
2008,05,30,13,10,693.00
2008,05,30,13,11,857.20
2008,05,30,13,12,953.00
2008,05,30,13,13,959.60
2008,05,30,13,14,1097.40
2008,05,30,13,15,1144.00
2008,05,30,13,16,874.50
2008,05,30,13,17,605.00
2008,05,30,13,18,856.70
2008,05,30,13,19,901.80
2008,05,30,13,20,785.80
2008,05,30,13,21,721.00
2008,05,30,13,22,721.00
2008,05,30,13,23,599.20
2008,05,30,13,24,543.00
2008,05,30,13,25,638.30
2008,05,30,13,26,576.50
2008,05,30,13,27,546.10
2008,05,30,13,28,592.40
2008,05,30,13,29,613.00
2008,05,30,13,30,840.60
2008,05,30,13,31,882.00
2008,05,30,13,32,882.00
2008,05,30,13,33,882.00
2008,05,30,13,34,882.00
2008,05,30,13,35,724.30
2008,05,30,13,36,661.10
2008,05,30,13,37,551.00
2008,05,30,13,38,631.00
2008,05,30,13,39,641.20
2008,05,30,13,40,654.00
2008,05,30,13,41,598.70
2008,05,30,13,42,575.00
2008,05,30,13,43,521.90
2008,05,30,13,44,561.00
2008,05,30,13,45,782.20
2008,05,30,13,46,986.90
2008,05,30,13,47,1007.30
2008,05,30,13,48,1011.30
2008,05,30,13,49,990.00
2008,05,30,13,50,990.00
2008,05,30,13,51,990.00
2008,05,30,13,52,850.70
2008,05,30,13,53,765.00
2008,05,30,13,54,765.00
2008,05,30,13,55,765.00
2008,05,30,13,56,765.00
2008,05,30,13,57,928.70
2008,05,30,13,58,1066.40
2008,05,30,13,59,1062.00
2008,05,30,14,00,1024.20
2008,05,30,14,01,979.80
2008,05,30,14,02,819.00
2008,05,30,14,03,819.00
2008,05,30,14,04,935.30
2008,05,30,14,05,991.60
2008,05,30,14,06,982.80
2008,05,30,14,07,979.20
2008,05,30,14,08,974.00
2008,05,30,14,09,972.80
2008,05,30,14,10,972.00
2008,05,30,14,11,970.30
2008,05,30,14,12,975.10
2008,05,30,14,13,973.50
2008,05,30,14,14,992.20
2008,05,30,14,15,987.20
2008,05,30,14,16,978.90
2008,05,30,14,17,972.50
2008,05,30,14,18,961.90
2008,05,30,14,19,953.80
2008,05,30,14,20,947.60
2008,05,30,14,21,942.20
2008,05,30,14,22,936.10
2008,05,30,14,23,931.90
2008,05,30,14,24,924.40
2008,05,30,14,25,920.10
2008,05,30,14,26,915.20
2008,05,30,14,27,910.10
2008,05,30,14,28,905.80
2008,05,30,14,29,906.60
2008,05,30,14,30,904.80
2008,05,30,14,31,904.00
2008,05,30,14,32,904.50
2008,05,30,14,33,904.30
2008,05,30,14,34,900.80
2008,05,30,14,35,898.20
2008,05,30,14,36,898.00
2008,05,30,14,37,897.30
2008,05,30,14,38,896.00
2008,05,30,14,39,896.00
2008,05,30,14,40,900.50
2008,05,30,14,41,904.30
2008,05,30,14,42,910.10
2008,05,30,14,43,914.70
2008,05,30,14,44,913.70
2008,05,30,14,45,912.00
2008,05,30,14,46,911.20
2008,05,30,14,47,912.50
2008,05,30,14,48,919.40
2008,05,30,14,49,926.80
2008,05,30,14,50,933.50
2008,05,30,14,51,942.70
2008,05,30,14,52,954.90
2008,05,30,14,53,961.30
2008,05,30,14,54,956.80
2008,05,30,14,55,949.80
2008,05,30,14,56,940.80
2008,05,30,14,57,928.40
2008,05,30,14,58,921.50
2008,05,30,14,59,910.90
2008,05,30,15,00,903.40
2008,05,30,15,01,895.70
2008,05,30,15,02,889.80
2008,05,30,15,03,886.80
2008,05,30,15,04,881.10
2008,05,30,15,05,870.30
2008,05,30,15,06,861.00
2008,05,30,15,07,862.10
2008,05,30,15,08,863.00
2008,05,30,15,09,861.40
2008,05,30,15,10,866.40
2008,05,30,15,11,866.20
2008,05,30,15,12,857.80
2008,05,30,15,13,843.00
2008,05,30,15,14,847.10
2008,05,30,15,15,848.30
2008,05,30,15,16,852.30
2008,05,30,15,17,852.10
2008,05,30,15,18,854.20
2008,05,30,15,19,848.60
2008,05,30,15,20,844.70
2008,05,30,15,21,842.50
2008,05,30,15,22,837.10
2008,05,30,15,23,831.80
2008,05,30,15,24,828.00
2008,05,30,15,25,826.90
2008,05,30,15,26,826.00
2008,05,30,15,27,823.50
2008,05,30,15,28,822.80
2008,05,30,15,29,819.90
2008,05,30,15,30,815.70
2008,05,30,15,31,812.80
2008,05,30,15,32,809.80
2008,05,30,15,33,809.00
2008,05,30,15,34,803.60
2008,05,30,15,35,804.80
2008,05,30,15,36,800.00
2008,05,30,15,37,798.80
2008,05,30,15,38,798.00
2008,05,30,15,39,796.30
2008,05,30,15,40,795.20
2008,05,30,15,41,790.40
2008,05,30,15,42,789.00
2008,05,30,15,43,789.00
2008,05,30,15,44,786.90
2008,05,30,15,45,783.90
2008,05,30,15,46,778.70
2008,05,30,15,47,777.00
2008,05,30,15,48,775.10
2008,05,30,15,49,773.00
2008,05,30,15,50,770.60
2008,05,30,15,51,766.20
2008,05,30,15,52,764.60
2008,05,30,15,53,762.30
2008,05,30,15,54,760.10
2008,05,30,15,55,760.30
2008,05,30,15,56,757.10
2008,05,30,15,57,753.60
2008,05,30,15,58,748.60
2008,05,30,15,59,746.30
2008,05,30,16,00,745.00
2008,05,30,16,01,742.90
2008,05,30,16,02,742.00
2008,05,30,16,03,737.90
2008,05,30,16,04,736.50
2008,05,30,16,05,734.20
2008,05,30,16,06,730.90
2008,05,30,16,07,729.00
2008,05,30,16,08,726.50
2008,05,30,16,09,724.00
2008,05,30,16,10,723.40
2008,05,30,16,11,721.60
2008,05,30,16,12,718.70
2008,05,30,16,13,715.50
2008,05,30,16,14,715.00
2008,05,30,16,15,712.00
2008,05,30,16,16,710.00
2008,05,30,16,17,709.10
2008,05,30,16,18,706.30
2008,05,30,16,19,705.00
2008,05,30,16,20,701.40
2008,05,30,16,21,702.50
2008,05,30,16,22,698.70
2008,05,30,16,23,696.00
2008,05,30,16,24,694.80
2008,05,30,16,25,691.60
2008,05,30,16,26,689.10
2008,05,30,16,27,687.00
2008,05,30,16,28,686.10
2008,05,30,16,29,683.10
2008,05,30,16,30,680.80
2008,05,30,16,31,679.20
2008,05,30,16,32,675.20
2008,05,30,16,33,674.20
2008,05,30,16,34,670.10
2008,05,30,16,35,668.00
2008,05,30,16,36,665.50
2008,05,30,16,37,663.20
2008,05,30,16,38,661.10
2008,05,30,16,39,660.20
2008,05,30,16,40,656.60
2008,05,30,16,41,654.90
2008,05,30,16,42,651.30
2008,05,30,16,43,649.20
2008,05,30,16,44,645.20
2008,05,30,16,45,642.70
2008,05,30,16,46,642.00
2008,05,30,16,47,638.80
2008,05,30,16,48,635.30
2008,05,30,16,49,631.60
2008,05,30,16,50,630.50
2008,05,30,16,51,626.90
2008,05,30,16,52,623.20
2008,05,30,16,53,621.50
2008,05,30,16,54,618.10
2008,05,30,16,55,615.30
2008,05,30,16,56,611.70
2008,05,30,16,57,609.50
2008,05,30,16,58,606.70
2008,05,30,16,59,603.80
2008,05,30,17,00,601.50
2008,05,30,17,01,599.20
2008,05,30,17,02,597.70
2008,05,30,17,03,594.70
2008,05,30,17,04,591.50
2008,05,30,17,05,589.80